Location: Unspecified
(0.0000°N, 0.0000°E)
Time: 18:00:09
(UTC+00:00)

Vanguard 3 - Pass Details

Date: 28 September 2023
Orbit: 507 x 3241 km, 33.3° (Epoch: 29 November)

Event Time Altitude Azimuth Distance (km) Brightness Sun altitude
Rises 01:55:18 0° 324° (NW) 2,584 - -58.8°
Reaches altitude 10° 01:57:32 10° 337° (NNW) 1,735 - -58.3°
Maximum altitude 02:00:49 28° 39° (NE) 1,094 - -57.5°
Drops below altitude 10° 02:04:58 10° 99° (E) 2,222 - -56.4°
Exits shadow 02:07:57 - 109° (ESE) 3,389 10.8 -55.7°
Sets 02:08:14 0° 110° (ESE) 3,497 10.9 -55.6°
